• In Latvia
  • List of Countries
  • For 7 days
  • Water Temperature
  • Satellite Maps
  • Weather Map
  • Weather Widgets
  • user-avatar
    Login

    Hourly Weather Merkulaevka

    Today, 16 July, Monday

    Time Temperature Precipitation Wind Pressure Humidity
    00:00 +17°C° 0.7 mm 2 mps 701 mmHg 95%
    01:00 +17°C° 0.1 mm 2 mps 701 mmHg 94%
    02:00 +16°C° 0.1 mm 2 mps 701 mmHg 94%
    03:00 +16°C° 0 mm 2 mps 701 mmHg 93%
    04:00 +16°C° 0 mm 2 mps 701 mmHg 92%
    05:00 +16°C° 0 mm 2 mps 700 mmHg 92%
    06:00 +16°C° 0 mm 2 mps 700 mmHg 91%
    07:00 +19°C° 0 mm 2 mps 701 mmHg 82%
    08:00 +21°C° 0 mm 2 mps 701 mmHg 72%
    09:00 +24°C° 0 mm 2 mps 702 mmHg 63%
    10:00 +24°C° 0.4 mm 3 mps 702 mmHg 63%
    11:00 +25°C° 0.4 mm 3 mps 702 mmHg 63%
    12:00 +25°C° 0.4 mm 3 mps 702 mmHg 63%
    13:00 +25°C° 0.7 mm 3 mps 702 mmHg 63%
    14:00 +26°C° 0.7 mm 3 mps 702 mmHg 64%
    15:00 +26°C° 0.7 mm 3 mps 702 mmHg 64%
    16:00 +25°C° 0.4 mm 3 mps 702 mmHg 66%
    17:00 +25°C° 0.4 mm 3 mps 702 mmHg 68%
    18:00 +24°C° 0.4 mm 3 mps 701 mmHg 70%
    19:00 +21°C° 0.2 mm 2 mps 701 mmHg 75%
    20:00 +19°C° 0.2 mm 2 mps 701 mmHg 81%
    21:00 +18°C° 0.2 mm 2 mps 701 mmHg 86%
    22:00 +17°C° 0 mm 2 mps 701 mmHg 85%
    23:00 +17°C° 0 mm 2 mps 701 mmHg 85%

    Tomorrow, 17 July, Tuesday

    Time Temperature Precipitation Wind Pressure Humidity
    00:00 +16°C° 0 mm 2 mps 701 mmHg 84%
    01:00 +16°C° 0.1 mm 2 mps 701 mmHg 83%
    02:00 +16°C° 0.1 mm 3 mps 701 mmHg 82%
    03:00 +16°C° 0.1 mm 3 mps 701 mmHg 81%
    04:00 +16°C° 0.1 mm 2 mps 701 mmHg 81%
    05:00 +17°C° 0.1 mm 2 mps 701 mmHg 81%
    06:00 +17°C° 0.1 mm 2 mps 701 mmHg 81%
    07:00 +19°C° 0 mm 2 mps 701 mmHg 73%
    08:00 +21°C° 0 mm 3 mps 702 mmHg 65%
    09:00 +25°C° 0 mm 3 mps 702 mmHg 57%
    10:00 +26°C° 0.1 mm 3 mps 702 mmHg 53%
    11:00 +27°C° 0.1 mm 3 mps 702 mmHg 48%
    12:00 +28°C° 0.1 mm 3 mps 703 mmHg 44%
    13:00 +28°C° 0 mm 3 mps 703 mmHg 46%
    14:00 +27°C° 0 mm 3 mps 703 mmHg 48%
    15:00 +27°C° 0 mm 3 mps 703 mmHg 50%
    16:00 +26°C° 0.3 mm 3 mps 702 mmHg 56%
    17:00 +25°C° 0.3 mm 3 mps 702 mmHg 61%
    18:00 +24°C° 0.3 mm 3 mps 702 mmHg 67%
    19:00 +23°C° 0.1 mm 2 mps 702 mmHg 73%
    20:00 +20°C° 0.1 mm 2 mps 702 mmHg 80%
    21:00 +18°C° 0.1 mm 2 mps 702 mmHg 86%
    22:00 +17°C° 0.1 mm 2 mps 702 mmHg 86%
    23:00 +17°C° 0.1 mm 2 mps 702 mmHg 86%

    Day after tomorrow, 18 July, Wednesday

    Time Temperature Precipitation Wind Pressure Humidity
    00:00 +16°C° 0.1 mm 2 mps 702 mmHg 86%
    01:00 +16°C° 0 mm 2 mps 701 mmHg 85%
    02:00 +16°C° 0 mm 2 mps 701 mmHg 83%
    03:00 +16°C° 0 mm 2 mps 701 mmHg 82%
    04:00 +16°C° 0 mm 2 mps 701 mmHg 80%
    05:00 +16°C° 0 mm 2 mps 701 mmHg 79%
    06:00 +16°C° 0 mm 2 mps 701 mmHg 78%
    07:00 +20°C° 0 mm 1 mps 701 mmHg 69%
    08:00 +23°C° 0 mm 1 mps 702 mmHg 61%
    09:00 +26°C° 0 mm 1 mps 702 mmHg 52%
    10:00 +27°C° 0 mm 1 mps 702 mmHg 49%
    11:00 +28°C° 0 mm 2 mps 702 mmHg 46%
    12:00 +29°C° 0 mm 2 mps 702 mmHg 42%
    13:00 +29°C° 0 mm 2 mps 702 mmHg 45%
    14:00 +29°C° 0 mm 2 mps 702 mmHg 48%
    15:00 +28°C° 0 mm 2 mps 702 mmHg 51%
    16:00 +28°C° 0.3 mm 2 mps 702 mmHg 56%
    17:00 +27°C° 0.3 mm 1 mps 701 mmHg 61%
    18:00 +26°C° 0.3 mm 1 mps 701 mmHg 67%
    19:00 +24°C° 0 mm 1 mps 701 mmHg 72%
    20:00 +22°C° 0 mm 1 mps 701 mmHg 78%
    21:00 +20°C° 0 mm 1 mps 701 mmHg 83%
    22:00 +20°C° 0 mm 1 mps 701 mmHg 83%
    23:00 +19°C° 0 mm 1 mps 700 mmHg 83%

    19 July, Thursday

    Time Temperature Precipitation Wind Pressure Humidity
    00:00 +18°C° 0 mm 2 mps 700 mmHg 83%
    01:00 +17°C° 0 mm 2 mps 700 mmHg 78%
    02:00 +17°C° 0 mm 2 mps 700 mmHg 73%
    03:00 +17°C° 0 mm 2 mps 700 mmHg 68%
    04:00 +17°C° 0 mm 2 mps 700 mmHg 64%
    05:00 +17°C° 0 mm 2 mps 700 mmHg 61%
    06:00 +17°C° 0 mm 2 mps 700 mmHg 57%
    07:00 +21°C° 0 mm 1 mps 700 mmHg 52%
    08:00 +25°C° 0 mm 1 mps 701 mmHg 47%
    09:00 +28°C° 0 mm 1 mps 701 mmHg 42%
    10:00 +28°C° 0 mm 1 mps 701 mmHg 42%
    11:00 +29°C° 0 mm 1 mps 702 mmHg 42%
    12:00 +30°C° 0 mm 1 mps 702 mmHg 41%
    13:00 +30°C° 0.2 mm 1 mps 702 mmHg 43%
    14:00 +30°C° 0.2 mm 1 mps 702 mmHg 45%
    15:00 +30°C° 0.2 mm 1 mps 702 mmHg 48%
    16:00 +29°C° 0.5 mm 1 mps 701 mmHg 52%
    17:00 +29°C° 0.5 mm 1 mps 701 mmHg 56%
    18:00 +28°C° 0.5 mm 1 mps 701 mmHg 60%
    19:00 +26°C° 0.2 mm 1 mps 701 mmHg 65%
    20:00 +24°C° 0.2 mm 1 mps 701 mmHg 71%
    21:00 +22°C° 0.2 mm 1 mps 701 mmHg 77%
    22:00 +21°C° 0 mm 1 mps 701 mmHg 75%
    23:00 +21°C° 0 mm 1 mps 701 mmHg 73%

    20 July, Friday

    Time Temperature Precipitation Wind Pressure Humidity
    00:00 +19°C° 0 mm 2 mps 701 mmHg 71%
    01:00 +20°C° 0 mm 1 mps 701 mmHg 68%
    02:00 +20°C° 0 mm 1 mps 701 mmHg 66%
    03:00 +20°C° 0 mm 1 mps 701 mmHg 63%
    04:00 +20°C° 0.1 mm 1 mps 701 mmHg 63%
    05:00 +20°C° 0.1 mm 1 mps 701 mmHg 63%
    06:00 +20°C° 0.1 mm 1 mps 701 mmHg 64%
    07:00 +22°C° 0 mm 1 mps 702 mmHg 59%
    08:00 +25°C° 0 mm 1 mps 702 mmHg 55%
    09:00 +27°C° 0 mm 1 mps 702 mmHg 51%
    10:00 +29°C° 0 mm 1 mps 703 mmHg 48%
    11:00 +30°C° 0 mm 1 mps 703 mmHg 46%
    12:00 +31°C° 0 mm 2 mps 703 mmHg 44%
    13:00 +30°C° 1 mm 2 mps 703 mmHg 49%
    14:00 +30°C° 1 mm 2 mps 703 mmHg 54%
    15:00 +29°C° 1 mm 2 mps 702 mmHg 58%
    16:00 +29°C° 1.4 mm 2 mps 702 mmHg 63%
    17:00 +28°C° 1.4 mm 1 mps 702 mmHg 67%
    18:00 +27°C° 1.4 mm 1 mps 703 mmHg 72%
    19:00 +25°C° 0.9 mm 1 mps 702 mmHg 77%
    20:00 +23°C° 0.9 mm 1 mps 702 mmHg 82%
    21:00 +20°C° 0.9 mm 2 mps 702 mmHg 87%
    22:00 +20°C° 0.1 mm 2 mps 702 mmHg 87%
    23:00 +19°C° 0.1 mm 2 mps 702 mmHg 88%

    21 July, Saturday

    Time Temperature Precipitation Wind Pressure Humidity
    00:00 +19°C° 0.1 mm 2 mps 702 mmHg 88%
    01:00 +18°C° 0 mm 2 mps 702 mmHg 89%
    02:00 +18°C° 0 mm 2 mps 702 mmHg 89%
    03:00 +18°C° 0 mm 2 mps 702 mmHg 89%
    04:00 +19°C° 0 mm 1 mps 702 mmHg 89%
    05:00 +19°C° 0 mm 1 mps 702 mmHg 88%
    06:00 +19°C° 0 mm 1 mps 703 mmHg 87%
    07:00 +22°C° 0 mm 1 mps 703 mmHg 78%
    08:00 +24°C° 0 mm 1 mps 703 mmHg 68%
    09:00 +27°C° 0 mm 1 mps 704 mmHg 59%
    10:00 +28°C° 0 mm 1 mps 704 mmHg 54%
    11:00 +29°C° 0 mm 1 mps 704 mmHg 50%
    12:00 +30°C° 0 mm 2 mps 704 mmHg 45%
    13:00 +30°C° 0.2 mm 2 mps 704 mmHg 50%
    14:00 +29°C° 0.2 mm 2 mps 704 mmHg 54%
    15:00 +29°C° 0.2 mm 2 mps 703 mmHg 59%
    16:00 +28°C° 0.5 mm 2 mps 703 mmHg 64%
    17:00 +27°C° 0.5 mm 1 mps 703 mmHg 69%
    18:00 +26°C° 0.5 mm 1 mps 703 mmHg 74%
    19:00 +25°C° 0.1 mm 1 mps 703 mmHg 78%
    20:00 +23°C° 0.1 mm 1 mps 703 mmHg 81%
    21:00 +22°C° 0.1 mm 1 mps 703 mmHg 85%
    22:00 +22°C° 0 mm 1 mps 703 mmHg 85%
    23:00 +21°C° 0 mm 1 mps 703 mmHg 86%
    Show more